When you browse on this site, cookies collect data to enhance your experience and personalize the content and advertising you see.
Visit our Privacy Policy to learn more. By continuing to use the site, you agree to this use of cookies and data.
  • Em Portugal
  • Lista de países
  • Para 7 dias
  • Temperatura da água
  • Mapa do tempo
  • Widgets de tempo
  • user-avatar
    Iniciar Sessão

    Previsão horária em Sofino

    Hoje, 4 Junho, Quinta-feira

    Tempo Temperatura Precipitação Vento Pressão Humidade
    00:00 +12°C° 1.2 mm 3 m/s 741 mmHg 98%
    01:00 +12°C° 1.2 mm 3 m/s 741 mmHg 98%
    02:00 +12°C° 0 mm 3 m/s 740 mmHg 99%
    03:00 +12°C° 2.6 mm 3 m/s 739 mmHg 99%
    04:00 +12°C° 2.6 mm 3 m/s 738 mmHg 99%
    05:00 +12°C° 2.6 mm 3 m/s 737 mmHg 98%
    06:00 +13°C° 1 mm 2 m/s 737 mmHg 98%
    07:00 +13°C° 1 mm 2 m/s 737 mmHg 98%
    08:00 +14°C° 0 mm 2 m/s 737 mmHg 99%
    09:00 +14°C° 0.1 mm 2 m/s 737 mmHg 96%
    10:00 +14°C° 0.1 mm 3 m/s 737 mmHg 94%
    11:00 +14°C° 0.1 mm 4 m/s 737 mmHg 92%
    12:00 +16°C° 0.1 mm 3 m/s 737 mmHg 85%
    13:00 +18°C° 0.1 mm 3 m/s 738 mmHg 79%
    14:00 +19°C° 0 mm 3 m/s 738 mmHg 72%
    15:00 +19°C° 0.3 mm 3 m/s 738 mmHg 73%
    16:00 +18°C° 0.3 mm 3 m/s 738 mmHg 74%
    17:00 +18°C° 0.3 mm 3 m/s 738 mmHg 76%
    18:00 +17°C° 0.3 mm 2 m/s 738 mmHg 81%
    19:00 +15°C° 0.3 mm 2 m/s 739 mmHg 86%
    20:00 +14°C° 0.3 mm 2 m/s 739 mmHg 91%
    21:00 +13°C° 0.2 mm 2 m/s 739 mmHg 92%
    22:00 +13°C° 0.2 mm 2 m/s 739 mmHg 93%
    23:00 +12°C° 0.2 mm 2 m/s 739 mmHg 94%

    Amanhã, 5 Junho, Sexta-feira

    Tempo Temperatura Precipitação Vento Pressão Humidade
    00:00 +12°C° 0 mm 2 m/s 740 mmHg 95%
    01:00 +10°C° 0 mm 3 m/s 740 mmHg 96%
    02:00 +9°C° 0 mm 3 m/s 741 mmHg 96%
    03:00 +10°C° 0 mm 3 m/s 741 mmHg 96%
    04:00 +10°C° 0 mm 3 m/s 741 mmHg 95%
    05:00 +10°C° 0 mm 3 m/s 741 mmHg 95%
    06:00 +12°C° 0 mm 3 m/s 742 mmHg 89%
    07:00 +13°C° 0 mm 3 m/s 742 mmHg 83%
    08:00 +15°C° 0 mm 4 m/s 742 mmHg 77%
    09:00 +17°C° 0.4 mm 4 m/s 742 mmHg 74%
    10:00 +18°C° 0.4 mm 4 m/s 742 mmHg 71%
    11:00 +18°C° 0.4 mm 4 m/s 742 mmHg 69%
    12:00 +19°C° 0.5 mm 4 m/s 742 mmHg 68%
    13:00 +19°C° 0.5 mm 3 m/s 742 mmHg 68%
    14:00 +19°C° 0.5 mm 3 m/s 742 mmHg 67%
    15:00 +19°C° 0.7 mm 3 m/s 742 mmHg 73%
    16:00 +18°C° 0.7 mm 3 m/s 742 mmHg 79%
    17:00 +17°C° 0.7 mm 3 m/s 742 mmHg 85%
    18:00 +16°C° 0.1 mm 2 m/s 742 mmHg 88%
    19:00 +15°C° 0.1 mm 2 m/s 743 mmHg 92%
    20:00 +13°C° 0.1 mm 2 m/s 743 mmHg 95%
    21:00 +12°C° 0 mm 2 m/s 743 mmHg 95%
    22:00 +12°C° 0 mm 2 m/s 743 mmHg 96%
    23:00 +10°C° 0 mm 2 m/s 743 mmHg 96%

    Depois de amanhã, 6 Junho, Sábado

    Tempo Temperatura Precipitação Vento Pressão Humidade
    00:00 +9°C° 0 mm 2 m/s 744 mmHg 97%
    01:00 +9°C° 0 mm 2 m/s 744 mmHg 97%
    02:00 +9°C° 0 mm 1 m/s 744 mmHg 97%
    03:00 +9°C° 0 mm 2 m/s 744 mmHg 97%
    04:00 +10°C° 0 mm 2 m/s 744 mmHg 97%
    05:00 +10°C° 0 mm 2 m/s 744 mmHg 97%
    06:00 +13°C° 0 mm 2 m/s 744 mmHg 92%
    07:00 +15°C° 0 mm 2 m/s 745 mmHg 87%
    08:00 +16°C° 0 mm 3 m/s 745 mmHg 83%
    09:00 +18°C° 0 mm 3 m/s 745 mmHg 74%
    10:00 +20°C° 0 mm 3 m/s 745 mmHg 66%
    11:00 +22°C° 0 mm 4 m/s 745 mmHg 57%
    12:00 +22°C° 0.1 mm 4 m/s 745 mmHg 60%
    13:00 +23°C° 0.1 mm 4 m/s 745 mmHg 63%
    14:00 +23°C° 0.1 mm 4 m/s 745 mmHg 66%
    15:00 +22°C° 1.1 mm 4 m/s 744 mmHg 75%
    16:00 +21°C° 1.1 mm 3 m/s 744 mmHg 84%
    17:00 +19°C° 1.1 mm 2 m/s 744 mmHg 93%
    18:00 +19°C° 0.3 mm 2 m/s 744 mmHg 93%
    19:00 +19°C° 0.3 mm 2 m/s 745 mmHg 94%
    20:00 +18°C° 0.3 mm 3 m/s 745 mmHg 94%
    21:00 +17°C° 0.2 mm 2 m/s 745 mmHg 95%
    22:00 +17°C° 0.2 mm 2 m/s 746 mmHg 96%
    23:00 +16°C° 0.2 mm 2 m/s 746 mmHg 97%

    7 Junho, Domingo

    Tempo Temperatura Precipitação Vento Pressão Humidade
    00:00 +16°C° 0 mm 2 m/s 747 mmHg 97%
    01:00 +15°C° 0 mm 2 m/s 747 mmHg 97%
    02:00 +15°C° 0 mm 2 m/s 748 mmHg 97%
    03:00 +15°C° 0 mm 2 m/s 749 mmHg 96%
    04:00 +15°C° 0 mm 2 m/s 749 mmHg 96%
    05:00 +16°C° 0 mm 1 m/s 750 mmHg 95%
    06:00 +18°C° 0 mm 1 m/s 750 mmHg 88%
    07:00 +20°C° 0 mm 1 m/s 751 mmHg 82%
    08:00 +22°C° 0 mm 1 m/s 751 mmHg 76%
    09:00 +23°C° 0 mm 1 m/s 751 mmHg 67%
    10:00 +24°C° 0 mm 1 m/s 752 mmHg 59%
    11:00 +26°C° 0 mm 1 m/s 752 mmHg 51%
    12:00 +26°C° 0 mm 1 m/s 752 mmHg 49%
    13:00 +27°C° 0 mm 1 m/s 752 mmHg 47%
    14:00 +27°C° 0 mm 1 m/s 752 mmHg 45%
    15:00 +27°C° 0 mm 1 m/s 752 mmHg 49%
    16:00 +27°C° 0 mm 1 m/s 752 mmHg 53%
    17:00 +26°C° 0 mm 1 m/s 752 mmHg 57%
    18:00 +24°C° 0 mm 1 m/s 752 mmHg 63%
    19:00 +23°C° 0 mm 1 m/s 751 mmHg 69%
    20:00 +20°C° 0 mm 2 m/s 751 mmHg 75%
    21:00 +19°C° 0 mm 2 m/s 752 mmHg 77%
    22:00 +18°C° 0 mm 2 m/s 752 mmHg 80%
    23:00 +18°C° 0 mm 2 m/s 752 mmHg 83%

    8 Junho, Segunda-feira

    Tempo Temperatura Precipitação Vento Pressão Humidade
    00:00 +17°C° 0 mm 2 m/s 752 mmHg 85%
    01:00 +17°C° 0 mm 2 m/s 752 mmHg 88%
    02:00 +17°C° 0 mm 2 m/s 752 mmHg 91%
    03:00 +17°C° 0 mm 2 m/s 752 mmHg 90%
    04:00 +18°C° 0 mm 2 m/s 752 mmHg 89%
    05:00 +19°C° 0 mm 2 m/s 752 mmHg 89%
    06:00 +20°C° 0 mm 2 m/s 752 mmHg 84%
    07:00 +23°C° 0 mm 2 m/s 752 mmHg 80%
    08:00 +24°C° 0 mm 2 m/s 752 mmHg 76%
    09:00 +26°C° 0 mm 2 m/s 752 mmHg 70%
    10:00 +27°C° 0 mm 2 m/s 752 mmHg 65%
    11:00 +28°C° 0 mm 2 m/s 752 mmHg 60%
    12:00 +29°C° 0.1 mm 2 m/s 752 mmHg 59%
    13:00 +29°C° 0.1 mm 2 m/s 752 mmHg 59%
    14:00 +29°C° 0.1 mm 2 m/s 752 mmHg 58%
    15:00 +29°C° 0.1 mm 2 m/s 751 mmHg 61%
    16:00 +29°C° 0.1 mm 2 m/s 751 mmHg 63%
    17:00 +28°C° 0.1 mm 2 m/s 751 mmHg 66%
    18:00 +27°C° 0.1 mm 2 m/s 751 mmHg 73%
    19:00 +25°C° 0.1 mm 1 m/s 751 mmHg 81%
    20:00 +23°C° 0.1 mm 1 m/s 751 mmHg 88%
    21:00 +22°C° 0 mm 1 m/s 751 mmHg 90%
    22:00 +21°C° 0 mm 1 m/s 752 mmHg 92%
    23:00 +21°C° 0 mm 1 m/s 752 mmHg 94%

    9 Junho, Terça-feira

    Tempo Temperatura Precipitação Vento Pressão Humidade
    00:00 +20°C° 0 mm 1 m/s 752 mmHg 94%
    01:00 +20°C° 0 mm 1 m/s 752 mmHg 94%
    02:00 +20°C° 0 mm 1 m/s 752 mmHg 95%
    03:00 +20°C° 0 mm 1 m/s 752 mmHg 94%
    04:00 +21°C° 0 mm 1 m/s 752 mmHg 93%
    05:00 +21°C° 0 mm 1 m/s 752 mmHg 92%
    06:00 +23°C° 0 mm 1 m/s 752 mmHg 86%
    07:00 +24°C° 0 mm 1 m/s 752 mmHg 79%
    08:00 +26°C° 0 mm 1 m/s 753 mmHg 73%
    09:00 +27°C° 0 mm 1 m/s 753 mmHg 67%
    10:00 +28°C° 0 mm 1 m/s 753 mmHg 61%
    11:00 +30°C° 0 mm 2 m/s 753 mmHg 55%
    12:00 +30°C° 0 mm 2 m/s 752 mmHg 54%
    13:00 +30°C° 0 mm 2 m/s 752 mmHg 53%
    14:00 +31°C° 0 mm 1 m/s 752 mmHg 52%
    15:00 +30°C° 0.4 mm 2 m/s 752 mmHg 60%
    16:00 +29°C° 0.4 mm 2 m/s 752 mmHg 67%
    17:00 +28°C° 0.4 mm 2 m/s 752 mmHg 74%
    18:00 +26°C° 0.2 mm 2 m/s 752 mmHg 79%
    19:00 +25°C° 0.2 mm 1 m/s 752 mmHg 84%
    20:00 +23°C° 0.2 mm 1 m/s 752 mmHg 89%
    21:00 +23°C° 0 mm 1 m/s 752 mmHg 90%
    22:00 +22°C° 0 mm 1 m/s 752 mmHg 92%
    23:00 +21°C° 0 mm 1 m/s 752 mmHg 94%
    Mostrar mais